Weather History for Merrill, WI

Change the Weather History Date:

Friday, March 15, 2013

  Actual Average Record
Temperature  
Mean Temperature 27 °F -  
Max Temperature 33 °F 38 °F 68 °F (2012)
Min Temperature 21 °F 16 °F -20 °F (1906)
Degree Days  
Heating Degree Days 38    
Moisture  
Dew Point 23 °F    
Average Humidity 78    
Maximum Humidity 100    
Minimum Humidity 56    
Precipitation  
Precipitation 0.04 in - - ()
Sea Level Pressure  
Sea Level Pressure 29.90 in    
Wind  
Wind Speed 4 mph (NE)    
Max Wind Speed 10 mph    
Max Gust Speed -    
Visibility 7 miles    
Events Snow    
Averages and records for this station are not official NWS values.
T = Trace of Precipitation, MM = Missing Value Source: NWS Daily Summary

Daily Weather History Graph

Daily Weather History Graph

Search for Another Location

Airport:

Trip Planner

Search our weather history database for the weather conditions in past years. The results will help you decide how hot, cold, wet, or windy it might be!

Date:

Astronomy

Mar. 15, 2013 Rise Set
Actual Time 7:10 AM CDT 7:05 PM CDT
Civil Twilight 6:41 AM CDT 7:34 PM CDT
Nautical Twilight 6:07 AM CDT 8:08 PM CDT
Astronomical Twilight 5:32 AM CDT 8:43 PM CDT
Moon 8:49 AM CDT (3/15) 11:32 PM CDT (3/15)
Length of Visible Light 12h 53m
Length of Day
11h 54m
Waxing Crescent, 15% of the Moon is Illuminated
Mar 15
Waxing Crescent
Mar 19
First Quarter
Mar 27
Full
Apr 2
Last Quarter
Apr 10
New

Hourly Weather History & Observations

Time (CDT) Temp. Windchill Dew Point Humidity Pressure Visibility Wind Dir Wind Speed Gust Speed Precip Events Conditions
12:15 AM 21.2 °F - 21.2 °F 100% 29.98 in 5.0 mi Calm Calm - N/A   Clear
12:35 AM 23.0 °F - 21.2 °F 93% 29.98 in 7.0 mi Calm Calm - N/A   Clear
12:55 AM 23.0 °F 18.4 °F 21.2 °F 93% 29.97 in 5.0 mi West 3.5 mph - N/A   Clear
1:15 AM 24.8 °F 17.9 °F 23.0 °F 93% 29.95 in 5.0 mi West 5.8 mph - N/A   Clear
1:35 AM 26.6 °F 20.0 °F 23.0 °F 86% 29.95 in 7.0 mi West 5.8 mph - N/A   Scattered Clouds
1:55 AM 26.6 °F 20.0 °F 23.0 °F 86% 29.94 in 7.0 mi West 5.8 mph - N/A   Mostly Cloudy
2:15 AM 28.4 °F 21.2 °F 24.8 °F 86% 29.94 in 7.0 mi West 6.9 mph - N/A   Overcast
2:55 AM 26.6 °F 21.2 °F 24.8 °F 93% 29.93 in 7.0 mi West 4.6 mph - N/A   Scattered Clouds
3:15 AM 26.6 °F 22.6 °F 23.0 °F 86% 29.91 in 7.0 mi West 3.5 mph - N/A   Clear
3:35 AM 26.6 °F 22.6 °F 23.0 °F 86% 29.91 in 7.0 mi West 3.5 mph - N/A   Scattered Clouds
3:55 AM 26.6 °F 22.6 °F 23.0 °F 86% 29.90 in 5.0 mi West 3.5 mph - N/A   Overcast
4:15 AM 26.6 °F 21.2 °F 24.8 °F 93% 29.90 in 7.0 mi West 4.6 mph - N/A   Overcast
4:35 AM 28.4 °F 22.2 °F 24.8 °F 86% 29.90 in 7.0 mi West 5.8 mph - N/A   Overcast
4:55 AM 28.4 °F 22.2 °F 24.8 °F 86% 29.89 in 7.0 mi West 5.8 mph - N/A   Overcast
5:15 AM 28.4 °F 24.6 °F 24.8 °F 86% 29.89 in 7.0 mi WNW 3.5 mph - N/A   Overcast
5:35 AM 28.4 °F - 24.8 °F 86% 29.90 in 7.0 mi Calm Calm - N/A   Overcast
5:55 AM 28.4 °F - 24.8 °F 86% 29.90 in 7.0 mi Calm Calm - N/A   Overcast
6:15 AM 28.4 °F - 24.8 °F 86% 29.91 in 7.0 mi Calm Calm - N/A   Overcast
6:35 AM 28.4 °F - 26.6 °F 93% 29.91 in 7.0 mi Calm Calm - N/A   Overcast
6:55 AM 28.4 °F - 26.6 °F 93% 29.91 in 7.0 mi Calm Calm - N/A   Overcast
7:15 AM 28.4 °F - 26.6 °F 93% 29.92 in 7.0 mi Calm Calm - N/A   Overcast
7:35 AM 28.4 °F - 26.6 °F 93% 29.92 in 5.0 mi Calm Calm - N/A Snow Light Snow
7:55 AM 28.4 °F - 26.6 °F 93% 29.92 in 0.8 mi Calm Calm - N/A Snow Light Snow
8:15 AM 28.4 °F - 26.6 °F 93% 29.92 in 1.0 mi Calm Calm - N/A Snow Light Snow
8:35 AM 28.4 °F - 26.6 °F 93% 29.92 in 1.5 mi Calm Calm - N/A Snow Light Snow
8:55 AM 28.4 °F - 28.4 °F 100% 29.92 in 1.5 mi Calm Calm - N/A Snow Light Snow
9:15 AM 30.2 °F - 28.4 °F 93% 29.91 in 1.5 mi Calm Calm - N/A Snow Light Snow
9:35 AM 32.0 °F 28.7 °F 28.4 °F 87% 29.91 in 2.5 mi NE 3.5 mph - N/A   Overcast
10:55 AM 32.0 °F 26.4 °F 26.6 °F 80% 29.93 in 10.0 mi ENE 5.8 mph - N/A   Overcast
11:15 AM 32.0 °F 24.8 °F 26.6 °F 80% 29.92 in 10.0 mi NE 8.1 mph - N/A   Overcast
11:35 AM 32.0 °F 24.8 °F 23.0 °F 69% 29.92 in 10.0 mi NNE 8.1 mph - N/A   Overcast
11:55 AM 32.0 °F 24.8 °F 23.0 °F 69% 29.92 in 10.0 mi NNE 8.1 mph - N/A   Overcast
12:15 PM 32.0 °F 24.8 °F 23.0 °F 69% 29.92 in 10.0 mi NNE 8.1 mph - N/A   Overcast
12:35 PM 32.0 °F 24.8 °F 23.0 °F 69% 29.93 in 10.0 mi NE 8.1 mph - N/A   Overcast
12:55 PM 32.0 °F 25.6 °F 21.2 °F 64% 29.92 in 10.0 mi NE 6.9 mph - N/A   Overcast
1:15 PM 32.0 °F 24.8 °F 21.2 °F 64% 29.91 in 10.0 mi East 8.1 mph - N/A   Overcast
1:35 PM 32.0 °F - 21.2 °F 64% 29.92 in 10.0 mi Calm Calm - N/A   Overcast
1:55 PM 32.0 °F - 21.2 °F 64% 29.91 in 10.0 mi Calm Calm - N/A   Overcast
2:15 PM 32.0 °F 28.7 °F 19.4 °F 60% 29.90 in 10.0 mi NE 3.5 mph - N/A   Overcast
2:35 PM 32.0 °F - 19.4 °F 60% 29.89 in 10.0 mi Calm Calm - N/A   Overcast
2:55 PM 33.8 °F - 19.4 °F 56% 29.88 in 10.0 mi Calm Calm - N/A   Overcast
3:15 PM 33.8 °F 30.8 °F 19.4 °F 56% 29.87 in 10.0 mi East 3.5 mph - N/A   Overcast
3:35 PM 33.8 °F 30.8 °F 19.4 °F 56% 29.86 in 10.0 mi NE 3.5 mph - N/A   Overcast
3:55 PM 33.8 °F 29.6 °F 19.4 °F 56% 29.87 in 10.0 mi NE 4.6 mph - N/A   Overcast
4:15 PM 33.8 °F 28.6 °F 19.4 °F 56% 29.86 in 10.0 mi NE 5.8 mph - N/A   Overcast
4:35 PM 33.8 °F 29.6 °F 19.4 °F 56% 29.85 in 10.0 mi NE 4.6 mph - N/A   Overcast
4:55 PM 33.8 °F - 19.4 °F 56% 29.86 in 10.0 mi Calm Calm - N/A   Overcast
5:15 PM 33.8 °F 29.6 °F 19.4 °F 56% 29.85 in 10.0 mi ENE 4.6 mph - N/A   Overcast
5:35 PM 33.8 °F 29.6 °F 19.4 °F 56% 29.85 in 10.0 mi NE 4.6 mph - N/A   Overcast
5:55 PM 32.0 °F 27.5 °F 19.4 °F 60% 29.84 in 10.0 mi ENE 4.6 mph - N/A   Overcast
6:15 PM 32.0 °F 27.5 °F 19.4 °F 60% 29.84 in 10.0 mi NNE 4.6 mph - N/A   Overcast
6:35 PM 32.0 °F 28.7 °F 19.4 °F 60% 29.85 in 10.0 mi NNE 3.5 mph - N/A   Overcast
6:55 PM 32.0 °F 26.4 °F 19.4 °F 60% 29.85 in 10.0 mi NNE 5.8 mph - N/A   Overcast
7:15 PM 32.0 °F 24.2 °F 19.4 °F 60% 29.85 in 10.0 mi NNE 9.2 mph - N/A   Overcast
7:35 PM 30.2 °F 21.9 °F 21.2 °F 69% 29.85 in 10.0 mi NE 9.2 mph - N/A   Overcast
7:55 PM 30.2 °F 21.9 °F 23.0 °F 75% 29.86 in 10.0 mi ENE 9.2 mph - N/A   Overcast
8:15 PM 28.4 °F 19.7 °F 23.0 °F 80% 29.86 in 5.0 mi NE 9.2 mph - N/A Snow Light Snow
8:35 PM 28.4 °F 19.7 °F 24.8 °F 86% 29.86 in 3.0 mi NE 9.2 mph - N/A Snow Light Snow
8:55 PM 28.4 °F 19.7 °F 24.8 °F 86% 29.86 in 4.0 mi NE 9.2 mph - N/A Snow Light Snow
9:15 PM 26.6 °F 18.2 °F 24.8 °F 93% 29.86 in 2.5 mi NE 8.1 mph - N/A Snow Light Snow
9:35 PM 26.6 °F 16.8 °F 23.0 °F 86% 29.86 in 1.5 mi NE 10.4 mph - 0.01 in Snow Light Snow
9:55 PM 26.6 °F 16.8 °F 23.0 °F 86% 29.86 in 0.8 mi ENE 10.4 mph - 0.01 in Snow Snow
10:15 PM 26.6 °F 19.1 °F 23.0 °F 86% 29.87 in 1.2 mi ENE 6.9 mph - 0.01 in Snow Light Snow
10:35 PM 26.6 °F 18.2 °F 23.0 °F 86% 29.87 in 1.2 mi ENE 8.1 mph - 0.02 in Snow Light Snow
10:55 PM 26.6 °F 18.2 °F 23.0 °F 86% 29.88 in 1.2 mi ESE 8.1 mph - 0.02 in Snow Light Snow
11:15 PM 24.8 °F 19.1 °F 23.0 °F 93% 29.88 in 1.5 mi ESE 4.6 mph - 0.01 in Snow Light Snow
11:35 PM 24.8 °F 16.9 °F 21.2 °F 86% 29.88 in 3.0 mi ESE 6.9 mph - 0.01 in Snow Light Snow
11:55 PM 23.0 °F 15.8 °F 21.2 °F 93% 29.88 in 2.5 mi ESE 5.8 mph - 0.01 in Snow Light Snow